Skip Page Navigation
NASA JPL Caltech
NASA Logo - Jet Propulsion Laboratory + View the NASA Portal
+ Near-Earth Object (NEO) Program
Search JPL
JPL Home Earth Solar System Stars & Galaxies Technology
JPL Solar System Dynamics
BODIES ORBITS EPHEMERIDES TOOLS PHYSICAL DATA DISCOVERY FAQ SITE MAP
JPL Small-Body Database Browser
Search: [ help ]  
153958 (2002 AM31)
Classification: Apollo [NEO, PHA]          SPK-ID: 2153958
Ephemeris | Orbit Diagram | Orbital Elements | Physical Parameters | Discovery Circumstances | Close-Approach Data ]

[ hide orbit diagram ]
Orbit Diagram
Note: Make sure you have Java enabled on your browser to see the applet. This applet is provided as a 3D orbit visualization tool. The applet was implemented using 2-body methods, and hence should not be used for determining accurate long-term trajectories (over several years or decades) or planetary encounter circumstances. For accurate long-term ephemerides, please instead use our Horizons system.
Orbit Viewer

Additional Notes: the orbits shown in the applet are color coded. The planets are white lines, and the asteroid/comet is a blue line. The bright white line indicates the portion of the orbit that is above the ecliptic plane, and the darker portion is below the ecliptic plane. Likewise for the asteroid/comet orbit, the light blue indicates the portion above the ecliptic plane, and the dark blue the portion below the ecliptic plane.

Orbit Viewer applet originally written and kindly provided by Osamu Ajiki (AstroArts), and further modified by Ron Baalke (JPL).


Orbital Elements at Epoch 2456400.5 (2013-Apr-18.0) TDB
Reference: JPL 94 (heliocentric ecliptic J2000)
 Element Value Uncertainty (1-sigma)   Units 
e .45152799240333 1.1237e-08  
a 1.703166008996928 7.2406e-09 AU
q .9341388802249534 1.86e-08 AU
i 4.644243312944506 2.8394e-06 deg
node 144.4132040438435 1.718e-05 deg
peri 197.8568340749048 1.3286e-05 deg
M 104.580015038445 1.4883e-06 deg
tp 2456164.653140486069
(2012-Aug-25.15314049)
3.1827e-06 JED
period 811.8651483632214
2.22
5.1772e-06
1.417e-08
d
yr
n .4434233945450004 2.8277e-09 deg/d
Q 2.472193137768903 1.051e-08 AU
  Orbit Determination Parameters
   # obs. used (total)      620  
   # delay obs. used      7  
   # Doppler obs. used      1  
   data-arc span      10851 days (29.71 yr)  
   first obs. used      1983-05-07  
   last obs. used      2013-01-20  
   planetary ephem.      DE405  
   SB-pert. ephem.      SB405-CPV-2  
   condition code      0  
   fit RMS      .37139  
   data source      ORB  
   producer      Otto Matic  
   solution date      2013-Apr-29 15:39:24  

Additional Information
 Earth MOID = .0316308 AU 
 T_jup = 4.073 
[ show covariance matrix ]

Ephemeris | Orbit Diagram | Orbital Elements | Physical Parameters | Discovery Circumstances | Close-Approach Data ]

Physical Parameter Table
Parameter Symbol Value Units Sigma Reference Notes
absolute magnitude H 18.168 mag .63318 49 autocmod 2.5b
rotation period rot_per 2.8174 h n/a Asteroid Lightcurve DataBase (Rev. 2013-May-01) Published Reference List:
[Pravec, P.; Wolf, M.; Sarounova, L. (2012) http://www.asu.cas.cz/~ppravec/neo.htm]

153958 (2002 AM31)          Discovered 2002-Jan-14 by LINEAR at Socorro (704)
Reference: 20070402/Numbers.arcLast Updated: 2007-04-04

[ show close-approach data ]
Ephemeris | Orbit Diagram | Orbital Elements | Physical Parameters | Discovery Circumstances | Close-Approach Data ]
ABOUT SSD CREDITS/AWARDS PRIVACY/COPYRIGHT GLOSSARY LINKS
FirstGov 2013-May-18 12:42 UT
(server date/time)  
NASA Home Page
Site Manager:   Donald K. Yeomans
Webmaster  Alan B. Chamberlin